When you browse on this site, cookies collect data to enhance your experience and personalize the content and advertising you see.
Visit our Privacy Policy to learn more. By continuing to use the site, you agree to this use of cookies and data.

Hourly Weather Dangriga

Today, 4 August, Tuesday

Time Temperature Precipitation Wind Pressure Humidity
00:00 +27°C° 0.4 mm 3 mps 759 mmHg 98%
01:00 +27°C° 0.4 mm 2 mps 759 mmHg 98%
02:00 +27°C° 0.4 mm 2 mps 759 mmHg 98%
03:00 +26°C° 0.4 mm 2 mps 759 mmHg 98%
04:00 +27°C° 0.1 mm 2 mps 759 mmHg 98%
05:00 +27°C° 0.1 mm 1 mps 759 mmHg 99%
06:00 +27°C° 0.1 mm 1 mps 759 mmHg 99%
07:00 +29°C° 0 mm 1 mps 760 mmHg 89%
08:00 +31°C° 0 mm 1 mps 760 mmHg 80%
09:00 +33°C° 0 mm 1 mps 761 mmHg 71%
10:00 +34°C° 0 mm 2 mps 760 mmHg 68%
11:00 +35°C° 0 mm 2 mps 760 mmHg 64%
12:00 +35°C° 0 mm 3 mps 760 mmHg 61%
13:00 +35°C° 0 mm 3 mps 759 mmHg 62%
14:00 +35°C° 0 mm 4 mps 759 mmHg 63%
15:00 +35°C° 0 mm 4 mps 758 mmHg 64%
16:00 +33°C° 0 mm 4 mps 758 mmHg 70%
17:00 +31°C° 0 mm 3 mps 758 mmHg 77%
18:00 +29°C° 0 mm 3 mps 758 mmHg 84%
19:00 +28°C° 0.4 mm 3 mps 759 mmHg 87%
20:00 +28°C° 0.4 mm 3 mps 759 mmHg 91%
21:00 +27°C° 0.4 mm 3 mps 760 mmHg 95%
22:00 +27°C° 0.7 mm 2 mps 760 mmHg 95%
23:00 +27°C° 0.7 mm 2 mps 759 mmHg 96%

Tomorrow, 5 August, Wednesday

Time Temperature Precipitation Wind Pressure Humidity
00:00 +27°C° 0.7 mm 2 mps 759 mmHg 96%
01:00 +27°C° 0.2 mm 1 mps 759 mmHg 95%
02:00 +27°C° 0.2 mm 1 mps 758 mmHg 95%
03:00 +27°C° 0.2 mm 1 mps 758 mmHg 94%
04:00 +27°C° 0.7 mm 1 mps 758 mmHg 93%
05:00 +27°C° 0.7 mm 1 mps 758 mmHg 93%
06:00 +27°C° 0.7 mm 1 mps 758 mmHg 92%
07:00 +29°C° 0.3 mm 1 mps 758 mmHg 83%
08:00 +31°C° 0.3 mm 2 mps 759 mmHg 73%
09:00 +34°C° 0.3 mm 2 mps 759 mmHg 64%
10:00 +35°C° 0.2 mm 2 mps 759 mmHg 59%
11:00 +36°C° 0.2 mm 3 mps 759 mmHg 54%
12:00 +37°C° 0.2 mm 3 mps 759 mmHg 49%
13:00 +36°C° 0 mm 3 mps 758 mmHg 51%
14:00 +36°C° 0 mm 4 mps 758 mmHg 52%
15:00 +35°C° 0 mm 4 mps 757 mmHg 54%
16:00 +34°C° 0 mm 4 mps 757 mmHg 63%
17:00 +32°C° 0 mm 4 mps 757 mmHg 72%
18:00 +30°C° 0 mm 4 mps 757 mmHg 81%
19:00 +29°C° 0.2 mm 4 mps 758 mmHg 86%
20:00 +28°C° 0.2 mm 4 mps 758 mmHg 91%
21:00 +27°C° 0.2 mm 4 mps 759 mmHg 96%
22:00 +27°C° 0.8 mm 4 mps 759 mmHg 97%
23:00 +27°C° 0.8 mm 4 mps 759 mmHg 98%

Day after tomorrow, 6 August, Thursday

Time Temperature Precipitation Wind Pressure Humidity
00:00 +27°C° 0.8 mm 4 mps 758 mmHg 98%
01:00 +27°C° 1.2 mm 3 mps 758 mmHg 98%
02:00 +27°C° 1.2 mm 3 mps 757 mmHg 98%
03:00 +26°C° 1.2 mm 3 mps 757 mmHg 98%
04:00 +26°C° 0.8 mm 3 mps 757 mmHg 98%
05:00 +26°C° 0.8 mm 3 mps 757 mmHg 98%
06:00 +27°C° 0.8 mm 3 mps 757 mmHg 98%
07:00 +28°C° 1.1 mm 3 mps 758 mmHg 95%
08:00 +29°C° 1.1 mm 3 mps 758 mmHg 93%
09:00 +30°C° 1.1 mm 3 mps 759 mmHg 90%
10:00 +31°C° 2.1 mm 3 mps 759 mmHg 82%
11:00 +33°C° 2.1 mm 3 mps 759 mmHg 74%
12:00 +34°C° 2.1 mm 3 mps 758 mmHg 66%
13:00 +34°C° 2.2 mm 4 mps 758 mmHg 66%
14:00 +33°C° 2.2 mm 4 mps 757 mmHg 66%
15:00 +33°C° 2.2 mm 5 mps 757 mmHg 66%
16:00 +32°C° 2.6 mm 5 mps 757 mmHg 75%
17:00 +29°C° 2.6 mm 6 mps 757 mmHg 84%
18:00 +28°C° 2.6 mm 7 mps 757 mmHg 93%
19:00 +27°C° 1.5 mm 7 mps 758 mmHg 95%
20:00 +27°C° 1.5 mm 7 mps 758 mmHg 96%
21:00 +27°C° 1.5 mm 7 mps 759 mmHg 98%
22:00 +27°C° 0.9 mm 7 mps 759 mmHg 98%
23:00 +27°C° 0.9 mm 7 mps 759 mmHg 98%

7 August, Friday

Time Temperature Precipitation Wind Pressure Humidity
00:00 +27°C° 0.9 mm 6 mps 759 mmHg 98%
01:00 +27°C° 0 mm 6 mps 758 mmHg 98%
02:00 +27°C° 0 mm 6 mps 758 mmHg 97%
03:00 +26°C° 0 mm 6 mps 758 mmHg 97%
04:00 +26°C° 0.1 mm 6 mps 758 mmHg 98%
05:00 +26°C° 0.1 mm 6 mps 758 mmHg 98%
06:00 +26°C° 0.1 mm 6 mps 758 mmHg 98%
07:00 +27°C° 0.4 mm 6 mps 759 mmHg 96%
08:00 +28°C° 0.4 mm 6 mps 759 mmHg 93%
09:00 +29°C° 0.4 mm 6 mps 760 mmHg 91%
10:00 +30°C° 0.5 mm 6 mps 760 mmHg 89%
11:00 +30°C° 0.5 mm 6 mps 760 mmHg 87%
12:00 +30°C° 0.5 mm 6 mps 760 mmHg 85%
13:00 +30°C° 0.5 mm 5 mps 759 mmHg 85%
14:00 +30°C° 0.5 mm 5 mps 759 mmHg 84%
15:00 +30°C° 0.5 mm 5 mps 758 mmHg 83%
16:00 +29°C° 0.4 mm 5 mps 758 mmHg 88%
17:00 +28°C° 0.4 mm 5 mps 759 mmHg 92%
18:00 +27°C° 0.4 mm 5 mps 759 mmHg 96%
19:00 +27°C° 0.4 mm 5 mps 759 mmHg 97%
20:00 +26°C° 0.4 mm 5 mps 760 mmHg 97%
21:00 +26°C° 0.4 mm 5 mps 760 mmHg 98%
22:00 +26°C° 0.4 mm 5 mps 760 mmHg 98%
23:00 +26°C° 0.4 mm 5 mps 760 mmHg 98%

8 August, Saturday

Time Temperature Precipitation Wind Pressure Humidity
00:00 +26°C° 0.4 mm 4 mps 760 mmHg 98%
01:00 +26°C° 0.4 mm 4 mps 760 mmHg 98%
02:00 +26°C° 0.4 mm 4 mps 759 mmHg 98%
03:00 +26°C° 0.4 mm 4 mps 759 mmHg 98%
04:00 +26°C° 0.3 mm 4 mps 759 mmHg 98%
05:00 +26°C° 0.3 mm 4 mps 760 mmHg 98%
06:00 +26°C° 0.3 mm 4 mps 760 mmHg 98%
07:00 +27°C° 0.6 mm 4 mps 760 mmHg 97%
08:00 +28°C° 0.6 mm 4 mps 761 mmHg 95%
09:00 +29°C° 0.6 mm 5 mps 761 mmHg 93%
10:00 +29°C° 0.8 mm 4 mps 761 mmHg 91%
11:00 +29°C° 0.8 mm 4 mps 761 mmHg 89%
12:00 +30°C° 0.8 mm 4 mps 760 mmHg 87%
13:00 +30°C° 0.7 mm 4 mps 760 mmHg 86%
14:00 +30°C° 0.7 mm 4 mps 759 mmHg 85%
15:00 +30°C° 0.7 mm 4 mps 758 mmHg 84%
16:00 +29°C° 0.5 mm 4 mps 759 mmHg 87%
17:00 +29°C° 0.5 mm 5 mps 759 mmHg 90%
18:00 +28°C° 0.5 mm 5 mps 759 mmHg 92%
19:00 +27°C° 2.2 mm 5 mps 760 mmHg 94%
20:00 +27°C° 2.2 mm 5 mps 760 mmHg 96%
21:00 +26°C° 2.2 mm 6 mps 760 mmHg 98%
22:00 +26°C° 2.7 mm 6 mps 760 mmHg 98%
23:00 +26°C° 2.7 mm 6 mps 760 mmHg 98%

9 August, Sunday

Time Temperature Precipitation Wind Pressure Humidity
00:00 +26°C° 2.7 mm 7 mps 760 mmHg 99%
01:00 +26°C° 1.9 mm 7 mps 759 mmHg 99%
02:00 +26°C° 1.9 mm 7 mps 759 mmHg 99%
03:00 +26°C° 1.9 mm 7 mps 759 mmHg 99%
04:00 +26°C° 1.3 mm 6 mps 759 mmHg 99%
05:00 +26°C° 1.3 mm 6 mps 759 mmHg 99%
06:00 +26°C° 1.3 mm 6 mps 759 mmHg 99%
07:00 +27°C° 1.6 mm 5 mps 760 mmHg 97%
08:00 +28°C° 1.6 mm 5 mps 760 mmHg 96%
09:00 +29°C° 1.6 mm 4 mps 760 mmHg 94%
10:00 +30°C° 0.8 mm 3 mps 760 mmHg 92%
11:00 +30°C° 0.8 mm 3 mps 760 mmHg 89%
12:00 +31°C° 0.8 mm 2 mps 760 mmHg 87%
13:00 +31°C° 0.7 mm 3 mps 759 mmHg 87%
14:00 +31°C° 0.7 mm 3 mps 759 mmHg 87%
15:00 +32°C° 0.7 mm 4 mps 758 mmHg 87%
16:00 +29°C° 1.1 mm 4 mps 758 mmHg 90%
17:00 +28°C° 1.1 mm 4 mps 758 mmHg 94%
18:00 +27°C° 1.1 mm 5 mps 758 mmHg 98%
19:00 +27°C° 1.4 mm 5 mps 759 mmHg 98%
20:00 +26°C° 1.4 mm 6 mps 759 mmHg 98%
21:00 +26°C° 1.4 mm 6 mps 759 mmHg 99%
22:00 +26°C° 1.1 mm 6 mps 759 mmHg 99%
23:00 +26°C° 1.1 mm 6 mps 759 mmHg 99%
Show more